Home   Weather   Santander   Past weeks

Flag for Spain Past Weather in Santander, Spain — Yesterday and Last 2 Weeks

Now
61 °F

Clear.


Feels Like: 61 °F
Forecast: 54 / 62 °F
Wind: 8 mph from Southwest

Location: Santander / Parayas

Current Time: Dec 5, 2016 at 1:36:57 am

Latest Report: Dec 5, 2016 at 1:00 am


Visibility: 6 mi

Pressure: 29.92 "Hg

Humidity: 59%

Dew Point: 46 °F

Location of SantanderLocation

Past Weather in Santander — Graph

°F

Santander Temperature Yesterday

Maximum temperature yesterday: 66 °F (at 2:00 pm)
Minimum temperature yesterday: 52 °F (at 2:00 am)
Average temperature yesterday: 60 °F

High & Low Weather Summary for the Past Weeks

 TemperatureHumidityPressure
High66 °F (Dec 4, 2:00 pm)100% (Nov 21, 8:30 am)30.33 "Hg (Nov 21, 8:30 am)
Low37 °F (Nov 26, 7:30 am)45% (Nov 21, 1:00 pm)29.21 "Hg (Nov 21, 3:00 am)
Average53 °F75%29.86 "Hg
* Reported Nov 20 12:00 am — Dec 5 12:30 am, Santander, Weather by CustomWeather, © 2016

Note: Actual official high and low records may vary slightly from our data, if they occured in-between our weather recording intervals... More about our weather records

Advertising

Santander Weather History for the Previous 24 Hours

Scroll right to see more
 ConditionsComfort  
Time TempWeatherWind HumidityBarometerVisibility
12:30 am
Mon, Dec 5
61 °FClear.7 mph59%29.92 "Hg6 mi
12:00 am61 °FClear.3 mph63%29.92 "Hg5 mi
11:30 pm
Sun, Dec 4
61 °FClear.9 mph63%29.92 "Hg6 mi
11:00 pm61 °FPassing clouds.8 mph59%29.92 "HgN/A
10:30 pm61 °FPassing clouds.7 mph59%29.92 "HgN/A
10:00 pm61 °FPassing clouds.7 mph63%29.92 "HgN/A
9:30 pm61 °FPassing clouds.7 mph59%29.92 "HgN/A
9:00 pm61 °FPassing clouds.6 mph59%29.89 "HgN/A
8:30 pm61 °FClear.2 mph59%29.89 "Hg10 mi
8:00 pm63 °FClear.2 mph56%29.89 "Hg10 mi
7:30 pm63 °FPassing clouds.8 mph56%29.89 "HgN/A
7:00 pm63 °FPassing clouds.6 mph56%29.86 "HgN/A
6:30 pm63 °FPassing clouds.7 mph56%29.86 "HgN/A
6:00 pm63 °FClear.2 mph56%29.86 "Hg10 mi
5:30 pm63 °FPassing clouds.12 mph59%29.83 "HgN/A
5:00 pm64 °FPassing clouds.15 mph56%29.80 "HgN/A
4:30 pm64 °FPassing clouds.15 mph56%29.80 "HgN/A
4:00 pm64 °FPassing clouds.14 mph56%29.80 "HgN/A
3:30 pm66 °FPassing clouds.13 mph52%29.80 "HgN/A
3:00 pm64 °FPassing clouds.18 mph56%29.80 "HgN/A
2:30 pm64 °FPassing clouds.18 mph56%29.80 "HgN/A
2:00 pm66 °FPassing clouds.13 mph52%29.80 "HgN/A
1:30 pm64 °FPassing clouds.17 mph52%29.80 "HgN/A
1:00 pm64 °FPassing clouds.12 mph52%29.80 "HgN/A
12:30 pm64 °FPassing clouds.9 mph52%29.80 "HgN/A
12:00 pm63 °FPassing clouds.8 mph56%29.80 "HgN/A
11:30 am59 °FPassing clouds.2 mph68%29.80 "HgN/A
11:00 am59 °FPassing clouds.2 mph68%29.80 "HgN/A
10:30 am61 °FPassing clouds.1 mph59%29.80 "HgN/A
10:00 am59 °FPassing clouds.No wind63%29.80 "HgN/A
9:30 am59 °FSunny.No wind59%29.80 "Hg10 mi
9:00 am57 °FSunny.No wind63%29.77 "Hg10 mi
8:30 am59 °FPassing clouds.5 mph59%29.77 "HgN/A
8:00 am59 °FPassing clouds.9 mph59%29.77 "HgN/A
7:30 am57 °FClear.1 mph63%29.77 "Hg10 mi
7:00 am59 °FPassing clouds.9 mph55%29.77 "HgN/A
6:30 am59 °FPassing clouds.9 mph55%29.77 "HgN/A
6:00 am59 °FPassing clouds.8 mph55%29.74 "HgN/A
5:30 am59 °FPassing clouds.10 mph55%29.74 "HgN/A
5:00 am59 °FClear.14 mph55%29.74 "Hg6 mi
4:30 am54 °FClear.1 mph63%29.74 "Hg6 mi
4:00 am54 °FClear.1 mph63%29.74 "Hg10 mi
3:30 am54 °FClear.5 mph63%29.74 "Hg6 mi
3:00 am54 °FClear.1 mph67%29.74 "Hg6 mi
2:30 am52 °FClear.2 mph72%29.74 "Hg10 mi
2:00 am52 °FPassing clouds.7 mph67%29.74 "HgN/A
1:30 am54 °FPassing clouds.3 mph63%29.74 "HgN/A
1:00 am55 °FPassing clouds.6 mph59%29.74 "HgN/A
Weather by CustomWeather, © 2016

See weather overviewHow to use our weather pages